Radiation Dose at Monitoring Post of Fukushima Daini Nuclear Power Station
Date,Time,MP-1(microSv/h),MP-2(microSv/h),MP-3(microSv/h),MP-4(microSv/h),MP-5(microSv/h),MP-6(microSv/h),MP-7(microSv/h),Wind Direction,Wind Velocity(m/s),Rain
2016/08/18,00:00,0.405,0.249,0.430,0.387,0.376,0.206,0.178,south-southwest,1.6,Yes
2016/08/18,00:10,0.408,0.246,0.425,0.386,0.371,0.205,0.174,south-southwest,1.9,Yes
2016/08/18,00:20,0.409,0.244,0.420,0.388,0.367,0.202,0.173,south-southwest,1.8,Yes
2016/08/18,00:30,0.403,0.244,0.422,0.384,0.366,0.201,0.172,north-northeast,0.7,Yes
2016/08/18,00:40,0.400,0.243,0.420,0.381,0.369,0.201,0.169,southwest,0.9,Yes
2016/08/18,00:50,0.405,0.240,0.417,0.384,0.365,0.200,0.170,west-southwest,1.6,Yes
2016/08/18,01:00,0.402,0.241,0.416,0.381,0.363,0.198,0.170,west-southwest,1.3,Yes
2016/08/18,01:10,0.398,0.240,0.418,0.378,0.368,0.198,0.168,west,0.7,No
2016/08/18,01:20,0.400,0.239,0.417,0.379,0.366,0.197,0.167,west-northwest,0.8,Yes
2016/08/18,01:30,0.403,0.238,0.414,0.381,0.363,0.196,0.169,-,CALM,Yes
2016/08/18,01:40,0.398,0.239,0.414,0.379,0.363,0.196,0.167,south-southwest,1.3,Yes
2016/08/18,01:50,0.396,0.237,0.416,0.377,0.365,0.195,0.166,south-southwest,2.2,Yes
2016/08/18,02:00,0.399,0.236,0.413,0.378,0.360,0.195,0.164,northeast,2.5,Yes
2016/08/18,02:10,0.397,0.238,0.411,0.377,0.360,0.195,0.167,south-southwest,2.8,Yes
2016/08/18,02:20,0.394,0.238,0.415,0.374,0.364,0.195,0.166,south-southwest,1.8,Yes
2016/08/18,02:30,0.396,0.236,0.416,0.377,0.365,0.196,0.167,south-southwest,2.2,Yes
2016/08/18,02:40,0.399,0.239,0.411,0.379,0.362,0.196,0.166,southwest,2.5,Yes
2016/08/18,02:50,0.395,0.239,0.412,0.376,0.361,0.197,0.167,west-northwest,1.1,Yes
2016/08/18,03:00,0.395,0.237,0.415,0.373,0.365,0.197,0.168,north-northwest,1.0,No
2016/08/18,03:10,0.400,0.239,0.413,0.379,0.363,0.197,0.168,north-northwest,1.3,Yes
2016/08/18,03:20,0.398,0.239,0.412,0.378,0.361,0.195,0.167,north,2.6,No
2016/08/18,03:30,0.396,0.238,0.416,0.374,0.364,0.196,0.165,north-northwest,3.0,Yes
2016/08/18,03:40,0.397,0.237,0.415,0.377,0.364,0.196,0.167,north-northwest,2.5,Yes
2016/08/18,03:50,0.400,0.239,0.412,0.379,0.361,0.195,0.167,west-southwest,1.4,Yes
2016/08/18,04:00,0.397,0.238,0.417,0.375,0.364,0.196,0.165,north,0.7,Yes
2016/08/18,04:10,0.396,0.236,0.416,0.377,0.366,0.196,0.167,north,0.9,Yes
2016/08/18,04:20,0.400,0.239,0.413,0.380,0.363,0.195,0.167,-,CALM,Yes
2016/08/18,04:30,0.398,0.236,0.413,0.377,0.359,0.195,0.165,north,1.3,No
2016/08/18,04:40,0.396,0.236,0.416,0.375,0.365,0.194,0.166,north,2.7,Yes
2016/08/18,04:50,0.398,0.238,0.415,0.378,0.362,0.195,0.166,north,2.0,Yes
2016/08/18,05:00,0.400,0.238,0.409,0.378,0.359,0.194,0.165,north,1.6,Yes
2016/08/18,05:10,0.397,0.235,0.414,0.375,0.363,0.194,0.165,north-northeast,1.1,Yes
2016/08/18,05:20,0.396,0.236,0.414,0.378,0.365,0.194,0.167,southwest,3.9,Yes
2016/08/18,05:30,0.400,0.238,0.412,0.379,0.359,0.196,0.166,north-northwest,2.5,Yes
2016/08/18,05:40,0.397,0.236,0.409,0.374,0.360,0.195,0.167,north-northeast,3.2,Yes
2016/08/18,05:50,0.393,0.238,0.410,0.370,0.366,0.197,0.169,north,3.9,Yes
2016/08/18,06:00,0.397,0.242,0.409,0.374,0.364,0.199,0.171,north,6.7,Yes
2016/08/18,06:10,0.399,0.242,0.411,0.376,0.364,0.199,0.168,north,5.9,Yes
2016/08/18,06:20,0.398,0.242,0.417,0.374,0.369,0.199,0.171,north,5.2,Yes
2016/08/18,06:30,0.399,0.243,0.417,0.379,0.366,0.198,0.169,north,5.1,No
2016/08/18,06:40,0.400,0.242,0.413,0.379,0.362,0.197,0.166,north,5.3,No
2016/08/18,06:50,0.396,0.239,0.414,0.376,0.368,0.195,0.167,north,4.5,No
2016/08/18,07:00,0.397,0.239,0.417,0.377,0.364,0.196,0.167,north-northeast,1.0,No
2016/08/18,07:10,0.401,0.240,0.413,0.378,0.362,0.195,0.165,north,4.0,No
2016/08/18,07:20,0.397,0.237,0.410,0.377,0.363,0.194,0.166,north,3.1,No
2016/08/18,07:30,0.392,0.237,0.415,0.373,0.366,0.194,0.165,north,4.6,No
2016/08/18,07:40,0.396,0.237,0.414,0.378,0.361,0.194,0.164,north,6.0,No
2016/08/18,07:50,0.399,0.236,0.411,0.378,0.360,0.193,0.163,north,6.4,No
2016/08/18,08:00,0.394,0.234,0.411,0.373,0.366,0.190,0.166,north,5.2,No
2016/08/18,08:10,0.392,0.236,0.415,0.375,0.362,0.194,0.164,north,4.4,No
2016/08/18,08:20,0.398,0.235,0.413,0.378,0.360,0.193,0.164,north,4.3,No
2016/08/18,08:30,0.397,0.234,0.410,0.375,0.362,0.191,0.163,north,4.8,Yes
2016/08/18,08:40,0.395,0.235,0.414,0.373,0.365,0.192,0.164,north-northeast,3.5,Yes
2016/08/18,08:50,0.392,0.237,0.415,0.377,0.362,0.193,0.164,north,6.7,Yes
2016/08/18,09:00,0.399,0.238,0.411,0.377,0.360,0.195,0.164,north-northwest,3.1,Yes
2016/08/18,09:10,0.397,0.237,0.408,0.374,0.365,0.196,0.168,north,4.7,Yes
2016/08/18,09:20,0.394,0.241,0.415,0.374,0.366,0.196,0.169,north-northwest,5.7,Yes
2016/08/18,09:30,0.399,0.240,0.412,0.380,0.362,0.200,0.167,west-northwest,6.0,Yes
2016/08/18,09:40,0.399,0.241,0.410,0.376,0.365,0.200,0.171,west-northwest,4.4,Yes
2016/08/18,09:50,0.397,0.243,0.413,0.374,0.369,0.200,0.170,north-northwest,6.5,Yes
2016/08/18,10:00,0.400,0.243,0.417,0.380,0.368,0.201,0.168,north,6.9,No
2016/08/18,10:10,0.400,0.240,0.412,0.380,0.364,0.199,0.169,north,7.0,No
2016/08/18,10:20,0.396,0.239,0.414,0.376,0.370,0.197,0.168,north,8.3,Yes
2016/08/18,10:30,0.399,0.240,0.416,0.377,0.365,0.197,0.166,north,8.6,Yes
2016/08/18,10:40,0.402,0.242,0.415,0.381,0.363,0.198,0.167,north,7.0,Yes
2016/08/18,10:50,0.399,0.245,0.418,0.381,0.372,0.202,0.171,north-northwest,6.6,Yes
2016/08/18,11:00,0.404,0.250,0.424,0.384,0.374,0.205,0.175,north,5.7,Yes
2016/08/18,11:10,0.409,0.250,0.421,0.389,0.373,0.210,0.178,north-northwest,5.4,Yes
2016/08/18,11:20,0.406,0.251,0.423,0.386,0.380,0.213,0.183,north-northwest,4.7,Yes
2016/08/18,11:30,0.409,0.252,0.429,0.389,0.381,0.213,0.184,north,3.5,Yes
2016/08/18,11:40,0.410,0.251,0.425,0.390,0.377,0.213,0.182,north,2.7,Yes
2016/08/18,11:50,0.405,0.251,0.420,0.386,0.381,0.212,0.183,north,1.0,Yes
2016/08/18,12:00,0.404,0.250,0.425,0.383,0.376,0.208,0.180,north,2.5,Yes
2016/08/18,12:10,0.406,0.247,0.420,0.386,0.372,0.206,0.177,north,1.8,Yes
2016/08/18,12:20,0.401,0.245,0.416,0.382,0.374,0.205,0.176,north,1.6,No
2016/08/18,12:30,0.399,0.245,0.420,0.378,0.373,0.201,0.175,north-northwest,1.0,No
2016/08/18,12:40,0.401,0.241,0.417,0.381,0.367,0.199,0.171,north,1.3,No
2016/08/18,12:50,0.398,0.240,0.412,0.380,0.366,0.199,0.169,north-northwest,1.0,No
2016/08/18,13:00,0.394,0.240,0.411,0.378,0.368,0.196,0.169,west-northwest,0.7,No
2016/08/18,13:10,0.397,0.238,0.416,0.376,0.366,0.194,0.168,west-northwest,1.0,No
2016/08/18,13:20,0.398,0.235,0.412,0.379,0.362,0.194,0.166,southwest,0.6,No
2016/08/18,13:30,0.393,0.236,0.410,0.374,0.361,0.193,0.166,southwest,0.7,No
2016/08/18,13:40,0.392,0.237,0.412,0.371,0.364,0.193,0.165,north-northwest,0.6,No
2016/08/18,13:50,0.394,0.235,0.416,0.374,0.361,0.193,0.163,-,CALM,No
2016/08/18,14:00,0.396,0.233,0.411,0.376,0.361,0.193,0.164,-,CALM,No
2016/08/18,14:10,0.394,0.234,0.408,0.374,0.359,0.191,0.164,-,CALM,No
2016/08/18,14:20,0.390,0.236,0.411,0.371,0.364,0.193,0.164,-,CALM,No
2016/08/18,14:30,0.397,0.233,0.413,0.375,0.363,0.191,0.162,-,CALM,No
2016/08/18,14:40,0.395,0.232,0.411,0.378,0.360,0.192,0.163,north,0.8,Yes
2016/08/18,14:50,0.393,0.231,0.409,0.376,0.360,0.192,0.164,-,CALM,No
2016/08/18,15:00,0.390,0.234,0.410,0.372,0.362,0.191,0.162,-,CALM,No
2016/08/18,15:10,0.397,0.233,0.413,0.377,0.364,0.191,0.161,-,CALM,No
2016/08/18,15:20,0.396,0.232,0.413,0.376,0.362,0.192,0.165,-,CALM,No
2016/08/18,15:30,0.393,0.231,0.410,0.373,0.357,0.192,0.164,-,CALM,No
2016/08/18,15:40,0.391,0.233,0.409,0.373,0.360,0.191,0.162,-,CALM,No
2016/08/18,15:50,0.396,0.233,0.414,0.377,0.365,0.192,0.162,-,CALM,No
2016/08/18,16:00,0.396,0.231,0.414,0.379,0.360,0.192,0.162,southwest,0.6,No
2016/08/18,16:10,0.394,0.228,0.408,0.375,0.361,0.192,0.163,south-southwest,0.7,No
2016/08/18,16:20,0.393,0.227,0.408,0.373,0.357,0.192,0.162,south-southwest,2.2,No
2016/08/18,16:30,0.393,0.229,0.413,0.376,0.359,0.191,0.162,southwest,2.8,No
2016/08/18,16:40,0.397,0.236,0.415,0.378,0.364,0.192,0.163,southwest,3.7,No
2016/08/18,16:50,0.397,0.236,0.412,0.378,0.362,0.192,0.163,west-southwest,3.9,No
2016/08/18,17:00,0.394,0.235,0.410,0.374,0.361,0.193,0.163,southwest,2.8,No
2016/08/18,17:10,0.393,0.234,0.410,0.372,0.359,0.191,0.162,southwest,2.6,No
2016/08/18,17:20,0.394,0.234,0.416,0.377,0.358,0.190,0.163,south-southeast,0.6,No
2016/08/18,17:30,0.398,0.238,0.416,0.379,0.364,0.192,0.164,east,1.8,No
2016/08/18,17:40,0.397,0.236,0.412,0.376,0.364,0.191,0.163,east-southeast,2.1,No
2016/08/18,17:50,0.394,0.234,0.410,0.374,0.362,0.193,0.162,south-southeast,1.4,No
2016/08/18,18:00,0.395,0.236,0.415,0.377,0.358,0.192,0.164,southeast,1.9,No
2016/08/18,18:10,0.399,0.237,0.416,0.379,0.362,0.193,0.163,east-southeast,2.2,No
2016/08/18,18:20,0.396,0.234,0.412,0.376,0.363,0.192,0.162,east-southeast,1.7,No
2016/08/18,18:30,0.394,0.234,0.411,0.374,0.359,0.192,0.163,southeast,1.6,No
2016/08/18,18:40,0.399,0.237,0.415,0.379,0.360,0.192,0.164,south-southeast,1.4,No
2016/08/18,18:50,0.399,0.236,0.414,0.377,0.364,0.193,0.163,southeast,1.5,No
2016/08/18,19:00,0.394,0.233,0.411,0.376,0.361,0.192,0.162,south,1.9,No
2016/08/18,19:10,0.396,0.235,0.414,0.378,0.359,0.191,0.164,south,2.8,No
2016/08/18,19:20,0.399,0.235,0.417,0.380,0.366,0.193,0.163,south,4.2,No
2016/08/18,19:30,0.397,0.235,0.412,0.376,0.362,0.193,0.163,south,4.3,No
2016/08/18,19:40,0.394,0.235,0.411,0.377,0.359,0.192,0.164,south,2.7,No
2016/08/18,19:50,0.399,0.235,0.418,0.380,0.363,0.191,0.163,south,3.9,No
2016/08/18,20:00,0.397,0.233,0.415,0.378,0.364,0.193,0.163,south,2.5,No
2016/08/18,20:10,0.394,0.235,0.409,0.374,0.360,0.192,0.163,south,2.2,No
2016/08/18,20:20,0.399,0.235,0.412,0.378,0.360,0.191,0.164,south-southwest,2.8,No
2016/08/18,20:30,0.399,0.233,0.416,0.380,0.364,0.193,0.164,south-southwest,2.2,No
2016/08/18,20:40,0.395,0.235,0.412,0.376,0.363,0.192,0.163,south-southwest,0.7,No
2016/08/18,20:50,0.394,0.237,0.410,0.376,0.358,0.192,0.165,-,CALM,No
2016/08/18,21:00,0.400,0.234,0.415,0.381,0.362,0.192,0.163,west-southwest,0.5,No
2016/08/18,21:10,0.397,0.233,0.415,0.378,0.365,0.193,0.162,-,CALM,No
2016/08/18,21:20,0.394,0.236,0.411,0.376,0.361,0.192,0.164,-,CALM,No
2016/08/18,21:30,0.397,0.236,0.414,0.377,0.359,0.192,0.164,-,CALM,Yes
2016/08/18,21:40,0.399,0.234,0.415,0.380,0.365,0.193,0.162,south-southeast,0.8,No
2016/08/18,21:50,0.396,0.237,0.412,0.376,0.362,0.192,0.163,-,CALM,No
2016/08/18,22:00,0.394,0.235,0.411,0.375,0.358,0.191,0.165,south,0.7,No
2016/08/18,22:10,0.400,0.234,0.415,0.382,0.360,0.193,0.163,south,1.4,No
2016/08/18,22:20,0.397,0.236,0.416,0.378,0.365,0.193,0.163,south,1.5,No
2016/08/18,22:30,0.394,0.237,0.410,0.375,0.361,0.191,0.164,south,1.7,No
2016/08/18,22:40,0.397,0.234,0.413,0.377,0.358,0.192,0.165,south-southwest,0.8,No
2016/08/18,22:50,0.398,0.234,0.416,0.379,0.364,0.193,0.163,southwest,1.0,No
2016/08/18,23:00,0.395,0.237,0.414,0.377,0.363,0.192,0.164,south-southwest,0.7,No
2016/08/18,23:10,0.394,0.235,0.411,0.374,0.359,0.191,0.164,south-southwest,1.0,No
2016/08/18,23:20,0.399,0.233,0.416,0.378,0.360,0.192,0.163,-,CALM,No
2016/08/18,23:30,0.398,0.236,0.415,0.377,0.364,0.194,0.162,south-southwest,0.5,No
2016/08/18,23:40,0.394,0.237,0.412,0.375,0.360,0.192,0.164,south-southwest,0.8,No
2016/08/18,23:50,0.397,0.234,0.416,0.379,0.358,0.192,0.164,-,CALM,No
